This demonstration page uses our WeatherBlox Daily Observations layout. Learn more.

Left ArrowRight Arrow

39.29038, -76.61219

Hourly Observations for March 1, 2015

Temp ( °F °C ) Dew Point ( °F °C ) Humidity (%) Winds ( mph kmh ) Pressure ( in mb ) Visibility ( mi km ) Precip ( " mm )
12:54 am 00:54 undefined 1 -17 N/A N/A undefined N/A 30.69 1039 N/A 0.00 0.00
1:54 am 01:54 undefined 1 -17 N/A N/A undefined N/A 30.70 1040 N/A 0.00 0.00
2:54 am 02:54 undefined 1 -17 N/A N/A undefined N/A 30.71 1040 N/A 0.00 0.00
3:54 am 03:54 undefined 1 -17 N/A N/A undefined N/A 30.68 1039 N/A 0.00 0.00
4:54 am 04:54 undefined 1 -17 N/A N/A undefined N/A 30.66 1038 N/A 0.00 0.00
5:54 am 05:54 undefined 1 -17 N/A N/A undefined N/A 30.65 1038 N/A 0.00 0.00
6:54 am 06:54 undefined 1 -17 N/A N/A undefined N/A 30.68 1039 N/A 0.00 0.00
7:54 am 07:54 undefined 1 -17 N/A N/A undefined N/A 30.66 1038 N/A 0.00 0.00
8:54 am 08:54 undefined 1 -17 N/A N/A undefined N/A 30.65 1038 N/A 0.00 0.00
9:54 am 09:54 undefined 1 -17 N/A N/A undefined N/A 30.62 1037 N/A 0.01 0.25
10:54 am 10:54 undefined 1 -17 N/A N/A undefined N/A 30.59 1036 N/A 0.04 1.02
11:54 am 11:54 undefined 1 -17 N/A N/A undefined N/A 30.56 1035 N/A 0.05 1.27
12:54 pm 12:54 undefined 1 -17.2 1 -17.2 100 100 undefined N/A 30.52 1034 N/A 0.09 2.29
2:54 pm 14:54 undefined 1 -17 N/A N/A undefined N/A 30.43 1031 N/A 0.06 1.52
3:54 pm 15:54 undefined 1 -17 N/A N/A undefined N/A 30.40 1029 N/A 0.04 1.02
4:54 pm 16:54 undefined 1 -17 N/A N/A undefined N/A 30.35 1028 N/A 0.06 1.52
5:54 pm 17:54 undefined 1 -17 N/A N/A undefined N/A 30.33 1027 N/A 0.07 1.78
6:54 pm 18:54 undefined 25 -3.9 6 -14.4 44 44 undefined N/A 30.76 1042 N/A 0.00 0.00
7:54 pm 19:54 undefined 1 -17 N/A N/A undefined N/A 30.30 1026 N/A 0.04 1.02
8:54 pm 20:54 undefined 1 -17 N/A N/A undefined N/A 30.26 1025 N/A 0.00 0.00
9:54 pm 21:54 undefined 1 -17 N/A N/A undefined N/A 30.24 1024 N/A 0.00 0.00
10:54 pm 22:54 undefined 1 -17 N/A N/A undefined N/A 30.22 1023 N/A 0.00 0.00

Powered by AerisWeather